Check out our new BloomSky Weather System.

Active alerts


No alerts


Thunder radar  blitzortung!


Rain radar more information rain snow radar


Visit our other weather sites:

Template documentation
and downloads

And another site



Weather Underground History page Text

Daily Summary for July 3, 2017 Units:  English    Metric   Both
« Previous Day
Next Day »
Daily Weekly Monthly Yearly Custom
  High: Low: Average:
Temperature: 97.0 °F 78.1 °F 86.2 °F
Dew Point: 79.2 °F 73.2 °F 77 °F
Humidity: 93 % 47 % 76 %
Wind Speed: 9.0 mph 0.0 mph 3.8 mph
Wind Gust: 14.0 mph - -
Wind:- - SSE
Pressure: 30.07 in 29.93 in -
Precipitation: 0.00 in    
Historical Graphs
 
 
Tabular Data for July 3, 2017
Time Temperature Dew Point Pressure Wind Wind Speed Wind Gust Humidity Rainfall Rate (Hourly)
00:00 81.7 °F 77.4 °F 30.03 in SSE 9.0 mph 12.0 mph 87 % 0.00 in
00:05 81.7 °F 77.4 °F 30.04 in South 5.0 mph 12.0 mph 87 % 0.00 in
00:10 81.5 °F 77.2 °F 30.04 in SE 5.0 mph 12.0 mph 87 % 0.00 in
00:15 81.5 °F 77.5 °F 30.03 in SSE 1.0 mph 9.0 mph 88 % 0.00 in
00:20 81.3 °F 77.4 °F 30.04 in South 4.0 mph 9.0 mph 88 % 0.00 in
00:25 81.3 °F 77.4 °F 30.04 in SSE 2.0 mph 8.0 mph 88 % 0.00 in
00:30 81.1 °F 77.2 °F 30.04 in South 2.0 mph 8.0 mph 88 % 0.00 in
00:35 81.1 °F 77.2 °F 30.04 in SE 2.0 mph 8.0 mph 88 % 0.00 in
00:40 81.1 °F 77.2 °F 30.04 in South 4.0 mph 8.0 mph 88 % 0.00 in
00:45 81.0 °F 77.4 °F 30.04 in SE 2.0 mph 8.0 mph 89 % 0.00 in
00:50 81.0 °F 77.4 °F 30.04 in SE 4.0 mph 7.0 mph 89 % 0.00 in
00:55 81.0 °F 77.4 °F 30.04 in SW 2.0 mph 5.0 mph 89 % 0.00 in
01:00 80.8 °F 77.2 °F 30.04 in South 2.0 mph 8.0 mph 89 % 0.00 in
01:05 80.8 °F 77.2 °F 30.04 in South 3.0 mph 8.0 mph 89 % 0.00 in
01:10 80.8 °F 77.2 °F 30.04 in ESE 4.0 mph 8.0 mph 89 % 0.00 in
01:15 80.8 °F 77.5 °F 30.04 in SSE 4.0 mph 7.0 mph 90 % 0.00 in
01:20 80.8 °F 77.5 °F 30.03 in SE 2.0 mph 7.0 mph 90 % 0.00 in
01:25 80.8 °F 77.5 °F 30.03 in SSW 2.0 mph 6.0 mph 90 % 0.00 in
01:30 80.8 °F 77.5 °F 30.03 in South 5.0 mph 6.0 mph 90 % 0.00 in
01:35 80.8 °F 77.5 °F 30.03 in SE 2.0 mph 6.0 mph 90 % 0.00 in
01:40 80.8 °F 77.5 °F 30.03 in South 3.0 mph 6.0 mph 90 % 0.00 in
01:45 80.8 °F 77.5 °F 30.03 in SSE 5.0 mph 8.0 mph 90 % 0.00 in
01:50 80.8 °F 77.5 °F 30.03 in SE 4.0 mph 9.0 mph 90 % 0.00 in
01:55 80.8 °F 77.5 °F 30.03 in South 6.0 mph 9.0 mph 90 % 0.00 in
02:00 80.8 °F 77.5 °F 30.03 in South 3.0 mph 9.0 mph 90 % 0.00 in
02:05 80.8 °F 77.5 °F 30.02 in SE 7.0 mph 8.0 mph 90 % 0.00 in
02:10 80.8 °F 77.5 °F 30.03 in South 2.0 mph 10.0 mph 90 % 0.00 in
02:16 80.8 °F 77.5 °F 30.02 in SSE 4.0 mph 10.0 mph 90 % 0.00 in
02:21 80.8 °F 77.5 °F 30.03 in SSW 3.0 mph 10.0 mph 90 % 0.00 in
02:26 80.6 °F 77.4 °F 30.02 in SW 6.0 mph 9.0 mph 90 % 0.00 in
02:31 80.6 °F 77.4 °F 30.03 in SSW 3.0 mph 12.0 mph 90 % 0.00 in
02:36 80.6 °F 77.4 °F 30.03 in SE 7.0 mph 12.0 mph 90 % 0.00 in
02:41 80.4 °F 77.2 °F 30.02 in SSE 4.0 mph 12.0 mph 90 % 0.00 in
02:46 80.4 °F 77.2 °F 30.02 in South 2.0 mph 8.0 mph 90 % 0.00 in
02:51 80.4 °F 77.2 °F 30.02 in SE 4.0 mph 8.0 mph 90 % 0.00 in
02:56 80.4 °F 77.2 °F 30.02 in SSW 5.0 mph 8.0 mph 90 % 0.00 in
03:01 80.4 °F 77.2 °F 30.02 in SSE 2.0 mph 8.0 mph 90 % 0.00 in
03:06 80.2 °F 77.0 °F 30.02 in SE 2.0 mph 8.0 mph 90 % 0.00 in
03:11 80.2 °F 77.0 °F 30.03 in SE 4.0 mph 8.0 mph 90 % 0.00 in
03:21 80.2 °F 77.0 °F 30.02 in South 3.0 mph 9.0 mph 90 % 0.00 in
03:26 80.1 °F 76.8 °F 30.02 in South 3.0 mph 9.0 mph 90 % 0.00 in
03:31 80.1 °F 77.2 °F 30.02 in South 2.0 mph 7.0 mph 91 % 0.00 in
03:36 79.9 °F 77.0 °F 30.02 in SE 3.0 mph 7.0 mph 91 % 0.00 in
03:41 79.9 °F 77.0 °F 30.02 in SSW 2.0 mph 7.0 mph 91 % 0.00 in
03:46 79.9 °F 77.0 °F 30.02 in SSW 4.0 mph 7.0 mph 91 % 0.00 in
03:51 79.7 °F 76.8 °F 30.02 in South 4.0 mph 5.0 mph 91 % 0.00 in
03:56 79.7 °F 76.8 °F 30.02 in SSE 2.0 mph 5.0 mph 91 % 0.00 in
04:01 79.5 °F 76.6 °F 30.02 in SSW 3.0 mph 5.0 mph 91 % 0.00 in
04:06 79.5 °F 76.6 °F 30.02 in South 4.0 mph 5.0 mph 91 % 0.00 in
04:11 79.5 °F 76.6 °F 30.03 in SSE 2.0 mph 5.0 mph 91 % 0.00 in
04:16 79.3 °F 76.5 °F 30.02 in SE 2.0 mph 4.0 mph 91 % 0.00 in
04:21 79.3 °F 76.8 °F 30.02 in SSW 2.0 mph 6.0 mph 92 % 0.00 in
04:26 79.3 °F 76.8 °F 30.02 in SSE 4.0 mph 6.0 mph 92 % 0.00 in
04:31 79.3 °F 76.8 °F 30.01 in SSW 3.0 mph 6.0 mph 92 % 0.00 in
04:36 79.2 °F 76.6 °F 30.01 in South 2.0 mph 6.0 mph 92 % 0.00 in
04:46 79.2 °F 76.6 °F 30.01 in South 4.0 mph 6.0 mph 92 % 0.00 in
04:51 79.2 °F 76.6 °F 30.01 in SSE 3.0 mph 5.0 mph 92 % 0.00 in
04:56 79.2 °F 76.6 °F 30.01 in South 2.0 mph 5.0 mph 92 % 0.00 in
05:01 79.2 °F 76.6 °F 30.01 in South 5.0 mph 5.0 mph 92 % 0.00 in
05:06 79.2 °F 76.6 °F 30.01 in SSE 3.0 mph 6.0 mph 92 % 0.00 in
05:11 79.0 °F 76.5 °F 30.01 in SSW 4.0 mph 6.0 mph 92 % 0.00 in
05:16 79.0 °F 76.5 °F 30.01 in South 3.0 mph 6.0 mph 92 % 0.00 in
05:21 79.0 °F 76.5 °F 30.01 in SSE 2.0 mph 6.0 mph 92 % 0.00 in
05:26 79.0 °F 76.5 °F 30.01 in SE 4.0 mph 6.0 mph 92 % 0.00 in
05:31 79.0 °F 76.5 °F 30.01 in South 4.0 mph 6.0 mph 92 % 0.00 in
05:36 79.0 °F 76.5 °F 30.01 in Calm   6.0 mph 92 % 0.00 in
05:41 78.8 °F 76.3 °F 30.01 in SSE 2.0 mph 5.0 mph 92 % 0.00 in
05:46 78.6 °F 76.1 °F 30.01 in South 1.0 mph 4.0 mph 92 % 0.00 in
05:51 78.6 °F 76.1 °F 30.01 in South 2.0 mph 4.0 mph 92 % 0.00 in
05:56 78.4 °F 75.9 °F 30.01 in Calm   4.0 mph 92 % 0.00 in
06:01 78.4 °F 76.3 °F 30.01 in SSE 2.0 mph 3.0 mph 93 % 0.00 in
06:06 78.4 °F 76.3 °F 30.01 in South 3.0 mph 3.0 mph 93 % 0.00 in
06:11 78.4 °F 76.3 °F 30.02 in SSE 1.0 mph 4.0 mph 93 % 0.00 in
06:16 78.4 °F 76.3 °F 30.02 in SSE 1.0 mph 4.0 mph 93 % 0.00 in
06:21 78.4 °F 76.3 °F 30.02 in SSE 1.0 mph 4.0 mph 93 % 0.00 in
06:26 78.4 °F 76.3 °F 30.02 in SSE 2.0 mph 3.0 mph 93 % 0.00 in
06:31 78.3 °F 76.1 °F 30.03 in South 1.0 mph 3.0 mph 93 % 0.00 in
06:36 78.3 °F 76.1 °F 30.03 in Calm   3.0 mph 93 % 0.00 in
06:41 78.3 °F 76.1 °F 30.03 in Calm   3.0 mph 93 % 0.00 in
06:47 78.1 °F 75.9 °F 30.03 in SSE 1.0 mph 2.0 mph 93 % 0.00 in
06:52 78.1 °F 75.9 °F 30.04 in Calm   2.0 mph 93 % 0.00 in
06:57 78.3 °F 76.1 °F 30.04 in SSE 2.0 mph 2.0 mph 93 % 0.00 in
07:02 78.4 °F 76.3 °F 30.04 in Calm   3.0 mph 93 % 0.00 in
07:07 78.6 °F 76.5 °F 30.04 in Calm   3.0 mph 93 % 0.00 in
07:12 79.0 °F 76.8 °F 30.04 in Calm   3.0 mph 93 % 0.00 in
07:17 79.3 °F 76.8 °F 30.05 in SSE 1.0 mph 4.0 mph 92 % 0.00 in
07:22 79.9 °F 77.4 °F 30.05 in South 1.0 mph 4.0 mph 92 % 0.00 in
07:27 80.1 °F 77.2 °F 30.05 in South 2.0 mph 4.0 mph 91 % 0.00 in
07:32 80.4 °F 77.5 °F 30.05 in SE 1.0 mph 4.0 mph 91 % 0.00 in
07:37 80.6 °F 77.4 °F 30.06 in SSW 3.0 mph 4.0 mph 90 % 0.00 in
07:42 80.8 °F 77.5 °F 30.06 in Calm   4.0 mph 90 % 0.00 in
07:47 81.5 °F 78.3 °F 30.06 in SE 2.0 mph 3.0 mph 90 % 0.00 in
07:52 82.0 °F 78.1 °F 30.06 in Calm   3.0 mph 88 % 0.00 in
07:57 82.4 °F 78.1 °F 30.06 in SSW 1.0 mph 3.0 mph 87 % 0.00 in
08:02 82.9 °F 78.6 °F 30.06 in Calm   4.0 mph 87 % 0.00 in
08:07 83.7 °F 78.6 °F 30.06 in Calm   4.0 mph 85 % 0.00 in
08:12 84.2 °F 78.8 °F 30.06 in South 1.0 mph 4.0 mph 84 % 0.00 in
08:17 84.4 °F 78.6 °F 30.06 in SSW 2.0 mph 6.0 mph 83 % 0.00 in
08:22 84.2 °F 78.4 °F 30.06 in South 3.0 mph 6.0 mph 83 % 0.00 in
08:27 84.4 °F 78.3 °F 30.06 in SW 2.0 mph 6.0 mph 82 % 0.00 in
08:32 84.4 °F 77.9 °F 30.06 in SSW 6.0 mph 6.0 mph 81 % 0.00 in
08:37 83.8 °F 77.7 °F 30.07 in SSE 3.0 mph 8.0 mph 82 % 0.00 in
08:42 83.7 °F 77.9 °F 30.07 in South 5.0 mph 8.0 mph 83 % 0.00 in
08:47 83.7 °F 77.9 °F 30.07 in SSW 2.0 mph 8.0 mph 83 % 0.00 in
08:52 83.8 °F 78.4 °F 30.07 in ESE 7.0 mph 7.0 mph 84 % 0.00 in
08:57 84.0 °F 78.3 °F 30.07 in SW 2.0 mph 7.0 mph 83 % 0.00 in
09:02 84.4 °F 78.3 °F 30.07 in SSW 3.0 mph 7.0 mph 82 % 0.00 in
09:07 84.9 °F 78.8 °F 30.07 in SSW 3.0 mph 7.0 mph 82 % 0.00 in
09:12 85.5 °F 78.6 °F 30.07 in SSE 1.0 mph 7.0 mph 80 % 0.00 in
09:17 85.8 °F 78.1 °F 30.07 in SW 3.0 mph 7.0 mph 78 % 0.00 in
09:22 85.8 °F 78.1 °F 30.07 in SSW 3.0 mph 7.0 mph 78 % 0.00 in
09:27 85.6 °F 77.5 °F 30.07 in SSW 5.0 mph 9.0 mph 77 % 0.00 in
09:32 85.5 °F 77.7 °F 30.07 in South 4.0 mph 10.0 mph 78 % 0.00 in
09:37 85.8 °F 77.7 °F 30.07 in SSE 2.0 mph 10.0 mph 77 % 0.00 in
09:42 86.2 °F 77.7 °F 30.07 in SE 4.0 mph 11.0 mph 76 % 0.00 in
09:47 85.8 °F 77.0 °F 30.07 in SSE 2.0 mph 12.0 mph 75 % 0.00 in
09:52 86.0 °F 77.9 °F 30.07 in WSW 3.0 mph 12.0 mph 77 % 0.00 in
09:57 86.4 °F 77.9 °F 30.07 in SSW 3.0 mph 12.0 mph 76 % 0.00 in
10:02 86.5 °F 77.7 °F 30.07 in SSE 3.0 mph 10.0 mph 75 % 0.00 in
10:07 87.3 °F 78.4 °F 30.07 in South 3.0 mph 10.0 mph 75 % 0.00 in
10:12 87.6 °F 77.5 °F 30.07 in SSW 4.0 mph 10.0 mph 72 % 0.00 in
10:17 87.6 °F 77.0 °F 30.07 in SSW 9.0 mph 10.0 mph 71 % 0.00 in
10:22 88.2 °F 77.2 °F 30.07 in South 3.0 mph 10.0 mph 70 % 0.00 in
10:27 88.3 °F 76.8 °F 30.07 in SSE 6.0 mph 10.0 mph 69 % 0.00 in
10:32 88.3 °F 76.5 °F 30.06 in SE 7.0 mph 10.0 mph 68 % 0.00 in
10:37 88.7 °F 77.2 °F 30.06 in SSE 5.0 mph 11.0 mph 69 % 0.00 in
10:42 89.1 °F 77.2 °F 30.06 in South 9.0 mph 13.0 mph 68 % 0.00 in
10:43 89.1 °F 77.2 °F 30.06 in SE 7.0 mph 13.0 mph 68 % 0.00 in
10:48 89.4 °F 77.0 °F 30.06 in South 5.0 mph 13.0 mph 67 % 0.00 in
10:53 89.8 °F 79.2 °F 30.06 in SSW 1.0 mph 13.0 mph 71 % 0.00 in
10:55 97.0 °F 73.4 °F 29.96 in SE 5.0 mph 7.0 mph 47 % 0.00 in
10:56 97.0 °F 73.4 °F 29.96 in SE 8.0 mph 8.0 mph 47 % 0.00 in
10:57 97.0 °F 73.9 °F 29.96 in East 2.0 mph 7.0 mph 48 % 0.00 in
10:58 89.8 °F 76.5 °F 30.06 in SSE 5.0 mph 11.0 mph 65 % 0.00 in
11:03 89.6 °F 76.6 °F 30.06 in SSW 6.0 mph 11.0 mph 66 % 0.00 in
11:08 89.4 °F 77.0 °F 30.06 in SSW 4.0 mph 11.0 mph 67 % 0.00 in
11:13 90.0 °F 76.6 °F 30.06 in South 3.0 mph 11.0 mph 65 % 0.00 in
11:18 90.1 °F 75.9 °F 30.06 in SSW 6.0 mph 10.0 mph 63 % 0.00 in
11:23 90.1 °F 77.2 °F 30.06 in South 2.0 mph 9.0 mph 66 % 0.00 in
11:28 90.3 °F 77.0 °F 30.05 in South 4.0 mph 9.0 mph 65 % 0.00 in
11:33 90.3 °F 77.0 °F 30.06 in SSE 5.0 mph 9.0 mph 65 % 0.00 in
11:38 90.9 °F 78.4 °F 30.05 in SE 4.0 mph 10.0 mph 67 % 0.00 in
11:43 91.8 °F 77.9 °F 30.05 in SW 3.0 mph 10.0 mph 64 % 0.00 in
11:48 91.2 °F 76.3 °F 30.05 in SSW 2.0 mph 10.0 mph 62 % 0.00 in
11:53 90.7 °F 77.4 °F 30.05 in South 1.0 mph 7.0 mph 65 % 0.00 in
11:58 90.3 °F 77.9 °F 30.05 in Calm   7.0 mph 67 % 0.00 in
12:03 91.4 °F 78.8 °F 30.05 in SE 1.0 mph 7.0 mph 67 % 0.00 in
12:08 92.1 °F 77.7 °F 30.05 in South 4.0 mph 6.0 mph 63 % 0.00 in
12:13 92.5 °F 77.5 °F 30.05 in SW 3.0 mph 6.0 mph 62 % 0.00 in
12:14 92.7 °F 77.7 °F 30.05 in WSW 1.0 mph 6.0 mph 62 % 0.00 in
12:19 93.6 °F 77.5 °F 30.05 in Calm   6.0 mph 60 % 0.00 in
12:24 93.9 °F 76.8 °F 30.05 in NW 2.0 mph 6.0 mph 58 % 0.00 in
12:29 93.7 °F 76.6 °F 30.05 in Calm   8.0 mph 58 % 0.00 in
12:34 93.6 °F 75.6 °F 30.04 in SE 1.0 mph 8.0 mph 56 % 0.00 in
12:39 93.0 °F 76.1 °F 30.04 in SSE 1.0 mph 8.0 mph 58 % 0.00 in
12:44 93.0 °F 75.6 °F 30.04 in SSW 2.0 mph 6.0 mph 57 % 0.00 in
12:49 92.1 °F 76.3 °F 30.04 in Calm   6.0 mph 60 % 0.00 in
12:54 91.6 °F 74.7 °F 30.03 in SSW 2.0 mph 7.0 mph 58 % 0.00 in
12:59 92.5 °F 77.5 °F 30.03 in SSW 6.0 mph 7.0 mph 62 % 0.00 in
13:04 92.1 °F 75.2 °F 30.03 in SE 2.0 mph 7.0 mph 58 % 0.00 in
13:09 91.9 °F 76.6 °F 30.03 in Calm   7.0 mph 61 % 0.00 in
13:14 92.8 °F 75.9 °F 30.03 in South 5.0 mph 7.0 mph 58 % 0.00 in
13:19 93.0 °F 75.6 °F 30.02 in SSE 3.0 mph 6.0 mph 57 % 0.00 in
13:24 93.6 °F 75.0 °F 30.02 in South 3.0 mph 8.0 mph 55 % 0.00 in
13:29 94.1 °F 77.5 °F 30.02 in South 6.0 mph 8.0 mph 59 % 0.00 in
13:34 94.8 °F 76.1 °F 30.02 in SE 5.0 mph 8.0 mph 55 % 0.00 in
13:39 94.8 °F 75.0 °F 30.01 in ESE 5.0 mph 8.0 mph 53 % 0.00 in
13:44 94.3 °F 75.0 °F 30.01 in SSE 2.0 mph 7.0 mph 54 % 0.00 in
13:49 93.7 °F 73.9 °F 30.01 in SSW 3.0 mph 10.0 mph 53 % 0.00 in
13:54 93.4 °F 76.8 °F 30.01 in SE 1.0 mph 10.0 mph 59 % 0.00 in
13:59 93.7 °F 76.6 °F 30.01 in SW 2.0 mph 10.0 mph 58 % 0.00 in
14:04 94.5 °F 77.9 °F 30.01 in West 1.0 mph 10.0 mph 59 % 0.00 in
14:09 94.8 °F 74.5 °F 30.01 in SSE 5.0 mph 10.0 mph 52 % 0.00 in
14:14 94.8 °F 76.1 °F 30.01 in SSW 1.0 mph 8.0 mph 55 % 0.00 in
14:19 95.7 °F 75.9 °F 30.01 in SSE 1.0 mph 8.0 mph 53 % 0.00 in
14:24 96.3 °F 74.7 °F 30.00 in WNW 2.0 mph 8.0 mph 50 % 0.00 in
16:00 96.6 °F 73.8 °F 29.96 in SE 6.0 mph -999.0 mph 48 % 0 in
16:05 96.4 °F 74.1 °F 29.96 in SSE 5.0 mph 10.0 mph 49 % 0.00 in
16:10 96.4 °F 74.1 °F 29.96 in SSW 4.0 mph 10.0 mph 49 % 0.00 in
16:15 96.4 °F 73.6 °F 29.96 in SSW 5.0 mph 10.0 mph 48 % 0.00 in
16:20 96.1 °F 75.0 °F 29.96 in SW 6.0 mph 10.0 mph 51 % 0.00 in
16:25 96.1 °F 74.5 °F 29.96 in South 9.0 mph 10.0 mph 50 % 0.00 in
16:30 95.4 °F 73.2 °F 29.96 in SSW 3.0 mph 11.0 mph 49 % 0.00 in
16:35 95.2 °F 74.1 °F 29.95 in South 4.0 mph 11.0 mph 51 % 0.00 in
16:40 95.2 °F 74.1 °F 29.95 in SSW 7.0 mph 11.0 mph 51 % 0.00 in
16:45 95.0 °F 73.4 °F 29.95 in ESE 7.0 mph 11.0 mph 50 % 0.00 in
16:50 95.2 °F 73.6 °F 29.95 in SSE 4.0 mph 11.0 mph 50 % 0.00 in
16:55 95.0 °F 73.9 °F 29.95 in SSE 3.0 mph 11.0 mph 51 % 0.00 in
17:00 95.0 °F 74.7 °F 29.95 in South 6.0 mph 8.0 mph 52 % 0.00 in
17:05 95.2 °F 73.6 °F 29.94 in ESE 7.0 mph 9.0 mph 50 % 0.00 in
17:10 95.2 °F 74.8 °F 29.95 in SSE 6.0 mph 9.0 mph 52 % 0.00 in
17:15 95.4 °F 75.0 °F 29.94 in ESE 9.0 mph 11.0 mph 52 % 0.00 in
17:20 94.8 °F 75.0 °F 29.94 in South 5.0 mph 11.0 mph 53 % 0.00 in
17:25 94.1 °F 74.3 °F 29.94 in South 4.0 mph 11.0 mph 53 % 0.00 in
17:30 93.6 °F 75.0 °F 29.94 in SE 5.0 mph 10.0 mph 55 % 0.00 in
17:35 93.7 °F 75.7 °F 29.94 in SSW 2.0 mph 9.0 mph 56 % 0.00 in
17:40 93.7 °F 77.7 °F 29.94 in SSE 5.0 mph 10.0 mph 60 % 0.00 in
17:45 93.4 °F 78.8 °F 29.94 in East 3.0 mph 10.0 mph 63 % 0.00 in
17:51 93.0 °F 78.6 °F 29.94 in East 5.0 mph 10.0 mph 63 % 0.00 in
17:56 92.5 °F 78.4 °F 29.94 in East 4.0 mph 12.0 mph 64 % 0.00 in
18:01 92.3 °F 78.8 °F 29.93 in SSE 7.0 mph 12.0 mph 65 % 0.00 in
18:06 92.1 °F 78.3 °F 29.93 in SSE 5.0 mph 12.0 mph 64 % 0.00 in
18:11 91.9 °F 78.1 °F 29.94 in SE 8.0 mph 12.0 mph 64 % 0.00 in
18:16 91.8 °F 78.8 °F 29.94 in SSE 2.0 mph 12.0 mph 66 % 0.00 in
18:21 91.6 °F 78.6 °F 29.94 in SSE 6.0 mph 12.0 mph 66 % 0.00 in
18:26 91.6 °F 78.1 °F 29.94 in ESE 2.0 mph 12.0 mph 65 % 0.00 in
18:31 91.6 °F 78.1 °F 29.93 in ESE 3.0 mph 11.0 mph 65 % 0.00 in
18:36 91.6 °F 77.7 °F 29.93 in SE 6.0 mph 11.0 mph 64 % 0.00 in
18:41 91.6 °F 77.2 °F 29.93 in South 6.0 mph 11.0 mph 63 % 0.00 in
18:46 91.6 °F 77.2 °F 29.93 in ESE 4.0 mph 12.0 mph 63 % 0.00 in
18:51 91.4 °F 77.5 °F 29.93 in SE 5.0 mph 12.0 mph 64 % 0.00 in
18:56 91.2 °F 77.4 °F 29.93 in SSE 5.0 mph 12.0 mph 64 % 0.00 in
19:01 91.0 °F 77.5 °F 29.93 in SE 7.0 mph 14.0 mph 65 % 0.00 in
19:06 90.9 °F 77.5 °F 29.93 in SE 8.0 mph 14.0 mph 65 % 0.00 in
19:08 90.9 °F 77.5 °F 29.93 in ESE 7.0 mph 14.0 mph 65 % 0.00 in
19:13 90.7 °F 77.7 °F 29.93 in SSE 7.0 mph 14.0 mph 66 % 0.00 in
19:18 90.5 °F 77.5 °F 29.93 in East 3.0 mph 12.0 mph 66 % 0.00 in
19:23 90.1 °F 77.7 °F 29.93 in SSE 6.0 mph 12.0 mph 67 % 0.00 in
19:28 90.0 °F 77.5 °F 29.93 in ESE 9.0 mph 13.0 mph 67 % 0.00 in
19:33 89.6 °F 77.5 °F 29.93 in SE 5.0 mph 13.0 mph 68 % 0.00 in
19:38 89.4 °F 77.9 °F 29.93 in SSW 6.0 mph 13.0 mph 69 % 0.00 in
19:39 89.4 °F 77.9 °F 29.93 in SE 7.0 mph 13.0 mph 69 % 0.00 in
19:44 89.2 °F 77.7 °F 29.93 in ESE 7.0 mph 12.0 mph 69 % 0.00 in
19:49 89.1 °F 78.1 °F 29.94 in South 4.0 mph 12.0 mph 70 % 0.00 in
19:54 89.1 °F 77.5 °F 29.93 in South 8.0 mph 12.0 mph 69 % 0.00 in
19:59 89.1 °F 77.5 °F 29.93 in SSE 9.0 mph 13.0 mph 69 % 0.00 in
20:04 89.1 °F 77.2 °F 29.93 in SSE 8.0 mph 13.0 mph 68 % 0.00 in
20:09 89.1 °F 77.5 °F 29.93 in SSE 5.0 mph 13.0 mph 69 % 0.00 in
20:14 88.9 °F 78.3 °F 29.94 in SE 7.0 mph 13.0 mph 71 % 0.00 in
20:19 88.5 °F 77.9 °F 29.94 in SE 4.0 mph 14.0 mph 71 % 0.00 in
20:24 88.3 °F 78.1 °F 29.94 in SSE 4.0 mph 14.0 mph 72 % 0.00 in
20:29 88.2 °F 77.9 °F 29.94 in SE 6.0 mph 14.0 mph 72 % 0.00 in
20:34 88.0 °F 78.3 °F 29.94 in SE 6.0 mph 14.0 mph 73 % 0.00 in
20:39 87.8 °F 78.1 °F 29.94 in SSE 8.0 mph 14.0 mph 73 % 0.00 in
20:44 87.6 °F 77.9 °F 29.94 in SE 5.0 mph 14.0 mph 73 % 0.00 in
20:49 87.4 °F 77.7 °F 29.94 in SSE 7.0 mph 12.0 mph 73 % 0.00 in
20:54 87.4 °F 77.7 °F 29.94 in SSE 5.0 mph 12.0 mph 73 % 0.00 in
20:59 87.1 °F 77.7 °F 29.94 in SE 7.0 mph 12.0 mph 74 % 0.00 in
21:04 87.1 °F 77.7 °F 29.94 in SSE 7.0 mph 11.0 mph 74 % 0.00 in
21:09 86.7 °F 77.4 °F 29.94 in SSW 6.0 mph 12.0 mph 74 % 0.00 in
21:14 86.7 °F 77.4 °F 29.94 in SSW 9.0 mph 12.0 mph 74 % 0.00 in
21:19 86.5 °F 77.2 °F 29.95 in ESE 5.0 mph 13.0 mph 74 % 0.00 in
21:24 86.4 °F 77.0 °F 29.95 in SE 8.0 mph 13.0 mph 74 % 0.00 in
21:29 86.2 °F 77.0 °F 29.95 in SE 7.0 mph 13.0 mph 74 % 0.00 in
21:34 86.2 °F 77.0 °F 29.95 in SE 5.0 mph 13.0 mph 74 % 0.00 in
21:40 85.8 °F 77.0 °F 29.95 in SSE 6.0 mph 13.0 mph 75 % 0.00 in
21:45 85.8 °F 77.0 °F 29.95 in ESE 9.0 mph 13.0 mph 75 % 0.00 in
21:50 85.6 °F 77.2 °F 29.96 in SE 4.0 mph 13.0 mph 76 % 0.00 in
21:55 85.6 °F 77.2 °F 29.96 in SSW 6.0 mph 13.0 mph 76 % 0.00 in
22:00 85.5 °F 77.4 °F 29.95 in SSW 8.0 mph 13.0 mph 77 % 0.00 in
22:05 85.3 °F 77.2 °F 29.96 in SSW 5.0 mph 13.0 mph 77 % 0.00 in
22:10 85.1 °F 77.5 °F 29.96 in SSW 5.0 mph 13.0 mph 78 % 0.00 in
22:15 84.9 °F 77.4 °F 29.96 in South 5.0 mph 13.0 mph 78 % 0.00 in
22:20 84.7 °F 77.5 °F 29.96 in SSE 6.0 mph 10.0 mph 79 % 0.00 in
22:25 84.7 °F 77.5 °F 29.96 in ESE 4.0 mph 11.0 mph 79 % 0.00 in
22:30 84.6 °F 77.4 °F 29.96 in SSE 4.0 mph 11.0 mph 79 % 0.00 in
22:35 84.6 °F 77.7 °F 29.97 in SE 3.0 mph 11.0 mph 80 % 0.00 in
22:36 84.6 °F 77.7 °F 29.97 in SSW 6.0 mph 11.0 mph 80 % 0.00 in
22:41 84.4 °F 77.5 °F 29.97 in South 6.0 mph 10.0 mph 80 % 0.00 in
22:46 84.2 °F 77.4 °F 29.97 in SSE 8.0 mph 11.0 mph 80 % 0.00 in
22:48 84.2 °F 77.4 °F 29.97 in SSE 3.0 mph 11.0 mph 80 % 0.00 in
22:53 84.0 °F 77.5 °F 29.98 in SSW 4.0 mph 11.0 mph 81 % 0.00 in
22:58 83.8 °F 77.4 °F 29.98 in SSW 3.0 mph 11.0 mph 81 % 0.00 in
23:03 83.8 °F 77.7 °F 29.98 in SSW 7.0 mph 10.0 mph 82 % 0.00 in
23:08 83.7 °F 77.9 °F 29.98 in SSE 5.0 mph 7.0 mph 83 % 0.00 in
23:13 83.7 °F 77.9 °F 29.98 in SE 3.0 mph 9.0 mph 83 % 0.00 in
23:18 83.5 °F 78.1 °F 29.98 in SSE 4.0 mph 9.0 mph 84 % 0.00 in
23:23 83.5 °F 78.1 °F 29.98 in SE 6.0 mph 9.0 mph 84 % 0.00 in
23:28 83.3 °F 77.9 °F 29.98 in SSE 2.0 mph 9.0 mph 84 % 0.00 in
23:33 83.1 °F 77.7 °F 29.97 in SSE 7.0 mph 9.0 mph 84 % 0.00 in
23:34 83.1 °F 78.1 °F 29.97 in East 7.0 mph 9.0 mph 85 % 0.00 in
23:39 83.1 °F 78.1 °F 29.97 in SSE 4.0 mph 9.0 mph 85 % 0.00 in
23:44 83.1 °F 78.1 °F 29.97 in SSE 6.0 mph 10.0 mph 85 % 0.00 in
23:49 82.9 °F 78.3 °F 29.97 in SE 2.0 mph 10.0 mph 86 % 0.00 in
23:54 82.9 °F 78.3 °F 29.97 in SE 4.0 mph 12.0 mph 86 % 0.00 in
23:59 82.8 °F 78.1 °F 29.96 in South 3.0 mph 12.0 mph 86 % 0.00 in
Spring, Texas: Villages of Bridgestone
Compliments of Weather Underground - 2.75 mb

Script developed by  Jim McMurry - jmcmurry@mwt.net Adapted for the template by  Wim van der Kuil - Leuven-Template.eu

You find our weather info also at:

UK Metoffice

WeatherCloud

Weather Underground

Mid-South Weather Network

AWEKAS

Citizen Weather Observer Program (CWOP)

HAMweather, WeatherForYou, PWS Weather

Equipment we use:

Weather-station
Davis Vantage Vue

Weather-program
Meteohub

Weather-server
Debian 7.9 x86 (Guest)

Provider
DreamHost

Davis Vantage Vue

Meteohub

Debian 7.9 x86 (Guest)

DreamHost